Frederick, OK

12:44 PM CDT on July 22, 2017 (GMT -0500)
Frederick Municipal

Weather History for KFDR - April, 2013

Change the Weather History Date:

Friday, April 5, 2013

  Actual Average (KLTS) Record (KLTS)
Temperature  
Mean Temperature 50 °F -  
Max Temperature 66 °F 68 °F 87 °F (2016)
Min Temperature 34 °F 44 °F 30 °F (2013)
Degree Days  
Heating Degree Days 15    
Moisture  
Dew Point 41 °F    
Average Humidity 72    
Maximum Humidity 96    
Minimum Humidity 45    
Precipitation  
Precipitation 0.00 in - - ()
Sea Level Pressure  
Sea Level Pressure 30.08 in    
Wind  
Wind Speed 5 mph (SSE)    
Max Wind Speed 20 mph    
Max Gust Speed 23 mph    
Visibility 9 miles    
Events      
Averages and records for this station are not official NWS values.
T = Trace of Precipitation, MM = Missing Value Source: NWS Daily Summary

Daily Weather History Graph

Daily Weather History Graph

Search for Another Location

Airport or City:

Trip Planner

Search our weather history database for the weather conditions in past years. The results will help you decide how hot, cold, wet, or windy it might be!

Date:

Astronomy

Apr. 05, 2013 Rise Set
Actual Time 7:17 AM CDT 8:00 PM CDT
Civil Twilight 6:51 AM CDT 8:25 PM CDT
Nautical Twilight 6:21 AM CDT 8:55 PM CDT
Astronomical Twilight 5:51 AM CDT 9:26 PM CDT
Moon 4:13 AM CDT (4/5) 3:36 PM CDT (4/5)
Length of Visible Light 13h 33m
Length of Day
12h 42m
Waning Crescent, 23% of the Moon is Illuminated
Apr 5
Waning Crescent
Apr 10
New
Apr 18
First Quarter
Apr 25
Full
May 2
Last Quarter

Hourly Weather History & Observations

Time (CDT) Temp. Windchill Dew Point Humidity Pressure Visibility Wind Dir Wind Speed Gust Speed Precip Events Conditions
12:53 AM 37.9 °F - 35.1 °F 89% 30.19 in 10.0 mi Calm Calm - N/A   Clear
1:53 AM 37.0 °F - 34.0 °F 89% 30.19 in 10.0 mi Calm Calm - N/A   Clear
2:53 AM 37.0 °F - 34.0 °F 89% 30.18 in 9.0 mi Calm Calm - N/A   Clear
3:53 AM 36.0 °F - 33.1 °F 89% 30.17 in 7.0 mi Calm Calm - 0.00 in   Clear
4:53 AM 35.1 °F - 33.1 °F 92% 30.19 in 7.0 mi Calm Calm - N/A   Clear
5:53 AM 36.0 °F 30.3 °F 34.0 °F 93% 30.19 in 7.0 mi WNW 6.9 mph - N/A   Clear
6:53 AM 34.0 °F 31.0 °F 32.0 °F 92% 30.19 in 6.0 mi NNW 3.5 mph - N/A   Clear
7:53 AM 35.1 °F - 34.0 °F 96% 30.20 in 5.0 mi Calm Calm - N/A   Clear
8:53 AM 39.9 °F - 37.9 °F 93% 30.21 in 7.0 mi Calm Calm - N/A   Clear
9:53 AM 46.0 °F 43.1 °F 39.0 °F 76% 30.21 in 10.0 mi SW 5.8 mph - N/A   Clear
10:53 AM 51.1 °F - 43.0 °F 74% 30.21 in 10.0 mi South 8.1 mph - N/A   Clear
11:53 AM 55.0 °F - 42.1 °F 62% 30.19 in 10.0 mi SSW 12.7 mph - N/A   Clear
12:53 PM 59.0 °F - 44.1 °F 58% 30.15 in 10.0 mi South 11.5 mph - N/A   Clear
1:53 PM 61.0 °F - 45.0 °F 56% 30.10 in 10.0 mi SSE 11.5 mph - N/A   Clear
2:53 PM 64.0 °F - 45.0 °F 50% 30.06 in 10.0 mi SSE 15.0 mph 20.7 mph N/A   Clear
3:53 PM 64.9 °F - 45.0 °F 48% 30.02 in 10.0 mi South 15.0 mph - N/A   Clear
4:53 PM 66.0 °F - 44.1 °F 45% 29.97 in 10.0 mi SSE 17.3 mph 23.0 mph N/A   Clear
5:53 PM 66.0 °F - 45.0 °F 47% 29.94 in 10.0 mi SSE 19.6 mph - N/A   Clear
6:53 PM 64.9 °F - 45.0 °F 48% 29.93 in 10.0 mi SE 17.3 mph - N/A   Clear
7:53 PM 62.1 °F - 44.1 °F 52% 29.92 in 10.0 mi SE 11.5 mph - N/A   Clear
8:53 PM 57.9 °F - 46.9 °F 67% 29.92 in 10.0 mi SE 10.4 mph - N/A   Clear
9:53 PM 57.0 °F - 46.0 °F 67% 29.91 in 10.0 mi SSE 11.5 mph - N/A   Clear
10:53 PM 55.0 °F - 46.0 °F 72% 29.90 in 10.0 mi SE 12.7 mph - N/A   Clear
11:53 PM 55.0 °F - 46.0 °F 72% 29.86 in 10.0 mi SE 13.8 mph - N/A   Clear